Terug naar catalogus

METEOR 2-11 DEB

ActiefPO
NORAD 42455·DEBRIS·🇷🇺 Russia

Gelanceerd Jul 5, 1984 vanaf Plesetsk Cosmodrome

Loading…

Volgende Passages (komende 24 uur)

TLE

VersSource: Space-Track

Epoch: Sep 11, 2026, 10:52 UTC

1 42455U 84072R   26254.45333134  .00000761  00000-0  53898-3 0  9996
2 42455  82.5254 306.9136 0009276 121.3925 238.8151 13.96569540572003

Volg METEOR 2-11 DEB in realtime met AllMySat

Download on the App Store